Location: ????????
(55.8558°N, 38.8766°E)
Time: 08:20:05
(UTC+00:00)

Daily predictions for brighter satellites

Satellite Brightness Start Highest point End
(mag) Time Altitude Azimuth Time Altitude Azimuth Time Altitude Azimuth
PSLV R/B 4.4 14:55:15 10° NNE 14:59:20 68° WNW 15:03:26 10° SSW
Cosmos 1605 Rocket 4.5 14:55:16 10° N 15:01:05 38° ENE 15:06:48 10° SE
Cosmos 1821 Rocket 3.9 14:55:03 10° N 15:01:11 72° ENE 15:07:18 10° SSE
ATLAS 5 CENTAUR R/B 2.4 14:57:32 10° S 15:01:30 35° SE 15:05:56 10° ENE
Cosmos 1328 4.4 14:58:30 10° N 15:02:13 35° ENE 15:05:53 10° SE
Cosmos 1818 4.4 14:58:05 10° WSW 15:03:23 49° NNW 15:08:43 10° NE
Cosmos 1470 2.8 15:00:47 10° S 15:04:44 66° E 15:08:42 10° NNE
Cosmos 1733 3.7 15:01:27 10° SSW 15:05:17 66° WNW 15:09:10 10° N
Cosmos 2228 3.6 15:02:49 10° SSE 15:06:49 36° E 15:10:50 10° NNE
Envisat 3.0 15:02:27 10° SSE 15:07:32 81° ENE 15:12:39 10° NNW
Okean-O 3.1 15:03:24 10° S 15:07:49 69° WSW 15:12:17 10° NNW
Cosmos 2058 Rocket 4.0 15:05:39 10° SE 15:09:18 26° E 15:12:56 10° NNE
CZ-4 R/B 1.4 15:09:45 10° SSE 15:13:54 69° ENE 15:18:08 10° NNW
Cosmos 1934 Rocket 4.1 15:08:01 10° N 15:14:17 62° ENE 15:20:35 10° SSE
SL-24 R/B - RUBIN 2 4.2 15:10:15 10° SW 15:15:18 82° NW 15:21:04 10° NE
Nadezhda 3 Rocket 4.1 15:09:08 10° S 15:15:19 63° E 15:21:37 10° NNE
CZ-4 R/B 4.4 15:11:20 10° SSE 15:15:26 74° ENE 15:19:34 10° NNW
Cosmos 332 Rocket 4.0 15:10:40 10° SSW 15:15:31 77° WNW 15:20:27 10° NNE
Cosmos 921 Rocket 3.9 15:13:39 10° SSE 15:17:31 29° E 15:21:22 10° NE
Cosmos 2263 Rocket 2.7 15:13:37 10° SW 15:19:14 62° NW 15:24:51 10° NNE
CSL-04 Rocket 3.7 15:14:22 10° SSE 15:19:52 71° ENE 15:25:22 10° NNW
COSMO-SKYMED 1 2.8 15:18:05 10° NNE 15:22:17 46° E 15:26:28 10° S
ASTEX 1 3.5 15:19:13 10° NNE 15:24:05 55° E 15:28:57 10° S
Cosmos 2084 4.4 15:20:20 10° S 15:24:20 31° SE 15:27:58 12° ENE
NOAA 11 4.4 15:19:46 10° SE 15:25:01 51° ENE 15:30:16 10° N
USA 116 4.1 15:25:24 10° NE 15:28:07 26° E 15:30:53 10° SSE
Unknown 4.0 15:26:59 10° W 15:29:53 37° SSW 15:32:38 11° SE
Cosmos 1356 4.4 15:27:17 10° SSE 15:30:12 26° E 15:33:09 10° NE
Cosmos 1833 Rocket 2.8 15:24:43 10° NNW 15:30:16 56° NE 15:35:48 10° SE
FALCON 9 DEB 3.6 15:27:12 10° W 15:30:36 53° S 15:33:18 15° ESE
FREGAT/IRIS 4.1 15:30:52 16° ENE 15:31:19 17° ENE 15:33:13 10° NNE
Resurs 01 Rocket 3.6 15:30:15 11° ENE 15:31:31 12° NE 15:33:23 10° NNE
SJ 16-02 3.2 15:28:50 10° N 15:31:33 16° NE 15:33:28 12° ENE
Cosmos 1825 Rocket 4.3 15:28:01 10° NNW 15:32:19 57° W 15:36:37 10° S
Cosmos 1953 Rocket 3.8 15:29:45 10° NNW 15:34:10 76° W 15:38:31 10° S
Cosmos 1626 4.3 15:31:09 10° NNW 15:34:28 31° W 15:37:46 10° SSW
Cosmos 1271 Rocket 3.4 15:30:47 10° NNW 15:34:41 60° W 15:38:37 10° S
Unknown 3.6 15:31:42 10° WSW 15:35:09 54° S 15:37:42 17° ESE
EO 1 Delta rocket 3.9 15:31:26 10° SSE 15:35:59 63° ENE 15:40:58 10° N
Gbstr 26 Del rocket 4.4 15:31:23 10° W 15:37:06 59° S 15:43:22 13° ESE
ARGOS 4.3 15:34:03 13° E 15:37:36 25° NE 15:41:59 10° N
Unknown 4.4 15:35:29 10° SW 15:39:15 36° SSE 15:41:47 18° E
Unknown 3.6 15:36:19 10° W 15:39:39 51° S 15:41:58 18° ESE
Cosmos 2058 4.2 15:37:16 10° N 15:40:38 22° ENE 15:42:20 18° E
CZ-2D R/B 3.3 15:37:15 10° SSE 15:41:03 58° ENE 15:44:53 10° N
Unknown 4.4 15:40:32 10° SW 15:44:21 36° SSE 15:46:42 19° E
Cosmos 2227 Rocket 4.2 15:41:37 10° WNW 15:45:45 20° NNW 15:49:54 10° NNE
Unknown 4.4 15:42:12 10° SW 15:46:01 36° SSE 15:48:20 20° ESE
Cosmos 1726 2.3 15:42:43 10° SSE 15:46:13 45° E 15:49:44 10° NNE
SKYMED 3 4.5 15:41:59 10° NNE 15:46:22 74° ESE 15:50:42 10° S
Unknown 4.4 15:43:51 10° SW 15:47:41 37° SSE 15:49:56 21° ESE
Unknown 4.2 15:44:10 10° SW 15:48:00 42° SSE 15:50:16 21° E
Unknown 4.4 15:45:25 10° SW 15:49:15 37° SSE 15:51:26 21° ESE
Cosmos 839 Rocket 4.5 15:43:15 10° NW 15:49:21 64° SW 15:55:57 10° SSE
Cosmos 2082 Rocket 2.4 15:44:13 10° NNW 15:49:52 56° NE 15:54:33 15° ESE
Ariane Rocket 3.0 15:45:05 10° SSE 15:50:07 65° ENE 15:55:13 10° NNW
Unknown 4.3 15:47:06 10° SW 15:50:58 38° SSE 15:53:06 22° ESE
COSMOS 2406 3.6 15:45:14 10° NW 15:51:01 71° WSW 15:56:44 10° SSE
Falcon 9 debris 3.6 15:48:08 10° W 15:51:30 50° S 15:53:25 22° ESE
Cosmos 2297 Rocket 4.2 15:47:40 10° WNW 15:51:40 19° NNW 15:55:42 10° NNE
Cosmos 1242 Rocket 2.9 15:48:33 10° NNW 15:52:14 68° W 15:55:54 10° S
Cosmos 1606 Rocket 3.6 15:48:15 10° SSW 15:52:38 80° WNW 15:57:02 10° N
Cosmos 1703 3.2 15:49:17 10° NNW 15:53:16 89° WNW 15:57:12 10° S
Unknown 4.3 15:50:26 10° SW 15:54:19 39° SSE 15:56:20 23° ESE
Starlink (trailer) 4.3 15:52:05 10° SW 15:55:58 40° SSE 15:57:56 24° ESE
Unknown 4.3 15:53:43 10° SW 15:57:36 40° SSE 15:59:31 25° ESE
Unknown 3.7 15:54:57 10° W 15:58:22 51° S 16:00:04 26° ESE
Cosmos 1992 Rocket 3.9 15:53:39 10° SSW 15:58:54 85° ESE 16:04:09 10° NNE
Unknown 4.2 15:55:19 10° SW 15:59:13 41° SSE 16:01:04 25° ESE
Cosmos 1953 3.1 15:57:00 10° SSW 16:01:02 57° WNW 16:05:04 10° N
SPOT 3 Rocket 4.1 15:57:53 18° ESE 16:01:19 39° ENE 16:06:09 10° N
NOSS 3-3 (A) 4.4 15:54:15 10° NW 16:01:24 79° NE 16:07:45 18° ESE
NOSS 3-3 (C) 4.4 15:54:20 10° NW 16:01:29 78° NE 16:07:49 18° ESE
Lacrosse 5 1.9 15:57:10 10° WNW 16:02:15 78° SSW 16:05:32 22° ESE
Cosmos 724 4.4 15:56:49 10° SW 16:02:57 90° NW 16:09:00 10° NE
Cosmos 304 Rocket 4.5 15:58:57 10° SW 16:03:42 56° NW 16:08:27 10° NNE
Cosmos 1937 Rocket 4.5 15:59:24 10° NNW 16:03:55 29° NE 16:05:51 23° E
SJ-6B 3.5 16:03:02 28° E 16:03:59 32° ENE 16:07:22 10° N
Meteor 1-11 4.3 15:58:35 10° NNW 16:04:22 85° WSW 16:10:10 10° S
Cosmos 1932 4.4 15:58:07 10° SW 16:04:26 81° SE 16:10:56 10° NE
Cosmos 1777 Rocket 4.1 15:59:30 10° NNW 16:04:46 79° WSW 16:09:58 10° SSE
Unknown 4.2 16:01:48 10° SW 16:05:43 43° SSE 16:07:21 28° ESE
Unknown 4.2 16:01:57 10° SW 16:05:53 43° SSE 16:07:30 28° ESE
Cosmos 292 Rocket 4.0 16:01:44 10° S 16:06:16 46° ESE 16:10:50 10° NE
Unknown 4.2 16:02:40 10° SW 16:06:36 43° SSE 16:08:12 29° ESE
Unknown 3.6 16:05:47 10° WSW 16:09:27 56° S 16:10:50 33° ESE
MOS 1 4.2 16:04:48 10° SSE 16:10:25 67° ENE 16:16:02 10° NNW
SKYMED 2 3.8 16:06:04 10° NNE 16:10:25 71° WNW 16:14:45 10° SSW
Unknown 4.1 16:06:38 10° SW 16:10:34 44° SSE 16:12:02 31° ESE
Meteor 2-10 3.8 16:05:43 10° S 16:10:45 72° E 16:15:48 10° NNE
Unknown 4.1 16:06:53 10° SW 16:10:50 44° SSE 16:12:17 31° ESE
IRS-1A Rocket 4.1 16:05:28 10° SSE 16:10:58 82° ENE 16:16:32 10° NNW
Cosmos 1812 Rocket 4.2 16:07:15 10° SSE 16:11:14 33° E 16:15:14 10° NNE
Unknown 4.1 16:08:37 10° SW 16:12:35 45° SSE 16:13:59 32° ESE
Cosmos 1461 2.8 16:08:59 10° NW 16:13:02 81° SW 16:15:23 25° SE
Unknown 4.1 16:11:54 10° WSW 16:15:53 46° SSE 16:17:10 34° ESE
Unknown 4.1 16:12:24 10° SW 16:16:22 46° SSE 16:17:37 34° ESE
Cosmos 2084 Rocket 3.5 16:11:58 10° NW 16:16:25 71° NNE 16:18:18 33° ESE
Cosmos 2061 Rocket 4.4 16:10:38 10° N 16:16:32 40° ENE 16:19:37 25° ESE
Unknown 3.7 16:13:17 10° WSW 16:17:03 56° S 16:18:13 38° ESE
Cosmos 1844 Rocket 2.7 16:11:34 10° SW 16:17:14 82° NW 16:22:56 10° NE
Unknown 4.0 16:13:29 10° WSW 16:17:28 46° SSE 16:18:41 35° ESE
In-Cosmos 22 Rocket 4.4 16:13:57 10° N 16:19:06 45° ENE 16:21:40 27° ESE
H-2A R/B 2.4 16:16:45 25° ESE 16:19:29 45° ENE 16:24:39 10° N
Unknown 3.7 16:15:44 10° WSW 16:19:32 55° S 16:20:39 39° ESE
YAOGAN 1 4.0 16:16:17 10° SSW 16:20:22 40° W 16:24:29 10° NNW
Unknown 4.0 16:16:41 10° WSW 16:20:40 46° SSE 16:21:46 37° ESE
Meteor 1-16 Rocket 4.3 16:16:55 10° SSW 16:22:28 78° WNW 16:27:54 10° NNE
Cosmos 1076 Rocket 3.5 16:18:38 10° N 16:23:01 62° ENE 16:25:27 25° SSE
Unknown 4.0 16:20:04 10° WSW 16:24:04 48° SSE 16:25:03 39° ESE
HJ-1C 3.4 16:22:05 16° S 16:24:44 78° WSW 16:28:08 10° NNW
Unknown 4.0 16:21:44 10° WSW 16:25:44 48° SSE 16:26:39 40° SE
BREEZE-M DEB (TANK) 4.4 16:21:42 10° SSW 16:27:03 20° SSE 16:27:50 19° SSE
Unknown 4.0 16:23:23 10° WSW 16:27:23 49° SSE 16:28:15 41° SE
Cosmos 1939 Rocket 3.5 16:24:09 10° S 16:28:05 57° W 16:32:06 10° NNW
Unknown 3.9 16:25:02 10° WSW 16:29:03 49° SSE 16:29:51 42° SE
Unknown 3.9 16:28:18 10° WSW 16:32:19 50° SSE 16:33:00 45° SE
Unknown 3.9 16:30:02 10° WSW 16:34:04 51° SSE 16:34:41 46° SE
Cosmos 1908 3.2 16:30:39 10° SSW 16:34:34 83° WNW 16:38:30 10° N
Unknown 3.8 16:31:40 10° WSW 16:35:42 51° SSE 16:36:16 47° SE
Cosmos 2278 Rocket 2.4 16:30:22 10° S 16:35:46 47° ESE 16:40:44 12° NE
Unknown 3.8 16:33:16 10° WSW 16:37:17 51° SSE 16:37:47 48° SE
Unknown 3.8 16:33:45 10° WSW 16:37:47 52° SSE 16:38:16 48° SE
ATLAS CENTAUR R/B 3.0 16:34:08 10° NW 16:38:19 29° N 16:39:50 24° NE
Cosmos 1844 3.9 16:34:08 10° SW 16:39:52 74° NW 16:45:42 10° NNE
Cosmos 1339 Rocket 4.4 16:33:53 10° S 16:39:58 90° W 16:46:11 10° NNE
Unknown 3.8 16:36:26 10° WSW 16:40:28 51° SSE 16:40:49 49° SSE
CZ-2C R/B 3.6 16:39:52 36° ESE 16:41:39 47° ENE 16:47:10 10° N
Unknown 3.8 16:39:47 10° WSW 16:43:49 52° SSE 16:44:03 51° SSE
Unknown 3.8 16:41:22 10° WSW 16:45:25 52° SSE 16:45:36 52° SSE
SL-27 R/B 4.4 16:42:55 10° N 16:44:19 18° NNE 16:44:19 18° NNE
ATLAS 5 CENTAUR R/B 2.1 16:41:23 10° WSW 16:45:52 64° NNW 16:48:45 25° NE
Cosmos 1459 Rocket 3.9 16:40:03 10° N 16:46:15 74° ENE 16:50:30 22° SSE
Cosmos 1898 Rocket 3.5 16:41:17 10° NNW 16:46:31 62° ENE 16:47:52 46° ESE
Cosmos 2058 Rocket 4.1 16:42:52 10° SW 16:47:05 47° WNW 16:51:19 10° N
Unknown 3.8 16:43:16 10° WSW 16:47:19 54° S 16:47:28 54° SSE
Unknown 3.8 16:44:41 10° WSW 16:48:44 53° S 16:48:48 53° SSE
ADEOS Rocket 3.7 16:41:40 10° NNE 16:49:11 48° E 16:56:19 10° SSE
CZ-4 R/B 4.3 16:46:24 10° SW 16:49:24 19° W 16:52:25 10° NW
Unknown 3.8 16:46:22 10° WSW 16:50:25 54° S 16:50:25 54° S
Unknown 3.8 16:49:40 10° WSW 16:53:37 54° S 16:53:37 54° S
Unknown 3.9 16:51:22 10° WSW 16:55:14 54° S 16:55:14 54° S
Cosmos 921 Rocket 4.0 16:51:16 10° SW 16:55:38 49° WNW 17:00:00 10° NNE
USA 186 3.8 16:58:14 18° NNW 16:58:14 18° NNW 16:59:04 10° NNW
Unknown 3.9 16:53:01 10° WSW 16:56:50 54° S 16:56:50 54° S
Unknown 3.9 16:54:41 10° WSW 16:58:26 54° S 16:58:26 54° S
Cosmos 1727 Rocket 3.9 16:53:39 10° S 16:59:50 89° ESE 17:06:04 10° NNE
Cosmos 2151 3.3 16:55:58 10° N 16:59:33 50° NE 16:59:33 50° NE
Cosmos 1802 Rocket 3.9 16:55:07 10° N 17:01:37 79° ENE 17:04:58 31° SSE
FREGAT/IRIS 4.3 17:02:28 32° WNW 17:02:28 32° WNW 17:04:32 10° NNW
Unknown 4.0 16:57:59 10° WSW 17:01:37 53° SSW 17:01:37 53° SSW
Cosmos 2084 3.7 16:59:07 10° WSW 17:03:37 71° NNW 17:04:31 53° NNE
Unknown 4.0 16:59:32 10° WSW 17:03:08 53° SSW 17:03:08 53° SSW
Unknown 4.0 16:59:54 10° WSW 17:03:31 53° SSW 17:03:31 53° SSW
Cosmos 2263 Rocket 4.2 16:59:44 10° W 17:04:17 24° NNW 17:08:49 10° NNE
Unknown 4.0 17:01:30 10° WSW 17:05:04 53° SSW 17:05:04 53° SSW
Resurs 01 Rocket 2.1 17:07:50 49° NNE 17:07:50 49° NNE 17:11:30 10° N
Cosmos 2173 Rocket 4.0 17:01:51 10° NNW 17:08:12 84° W 17:12:17 23° S
Unknown 4.1 17:04:31 10° WSW 17:07:56 50° SSW 17:07:56 50° SSW
SJ 16-02 1.6 17:06:41 10° NNW 17:10:27 55° NNE 17:10:27 55° NNE
Cosmos 1864 Rocket 4.4 17:05:10 10° N 17:11:17 66° ENE 17:12:32 54° SE
Unknown 4.2 17:07:52 10° WSW 17:11:09 48° SW 17:11:09 48° SW
Cosmos 1892 3.8 17:08:51 10° N 17:11:14 36° N 17:11:14 36° N
Unknown 4.3 17:09:36 10° WSW 17:12:50 47° SW 17:12:50 47° SW
Cosmos 1833 Rocket 3.9 17:08:55 10° NW 17:14:04 38° WSW 17:18:08 16° S
Okean 3 Rocket 3.5 17:10:11 10° NNW 17:14:47 89° WSW 17:14:48 89° SW
Unknown 4.3 17:11:11 10° WSW 17:14:21 45° SW 17:14:21 45° SW
Terra 3.9 17:16:43 15° NNE 17:16:43 15° NNE 17:18:14 10° N
Unknown 4.4 17:12:54 10° WSW 17:16:01 44° SW 17:16:01 44° SW
ARGOS 3.2 17:15:35 44° S 17:17:22 81° WSW 17:22:51 10° NNW
Meteor 2-1 Rocket 4.0 17:18:00 66° E 17:18:00 66° E 17:23:26 10° NNE
Cosmos 2058 3.5 17:13:45 10° NNW 17:17:55 57° W 17:18:33 50° SW
Unknown 4.4 17:14:16 10° WSW 17:17:16 43° SW 17:17:16 43° SW
Cosmos 2123 Rocket 4.3 17:21:14 46° ENE 17:21:14 46° ENE 17:26:18 10° NNE
Cosmos 1766 Rocket 3.9 17:17:21 10° N 17:20:49 56° N 17:20:49 56° N
Cosmos 1825 4.5 17:19:06 10° N 17:20:02 16° N 17:20:02 16° N
USA 238 DEB 4.0 17:18:22 10° SSW 17:23:37 46° SSE 17:23:37 46° SSE
USA 238 4.0 17:18:29 10° SSW 17:23:39 45° SSE 17:23:39 45° SSE
Cosmos 1725 Rocket 3.9 17:19:17 10° N 17:25:36 79° ENE 17:26:49 60° SSE
Cosmos 2100 Rocket 4.4 17:21:05 10° NNW 17:27:13 61° W 17:31:39 19° SSW
Resurs 1-3 3.9 17:29:33 64° NW 17:29:33 64° NW 17:33:22 10° NNW
SL-08 RB Rocket 3.8 17:30:35 72° NW 17:30:35 72° NW 17:34:46 10° NNW
Cosmos 2233 Rocket 4.0 17:24:49 10° N 17:31:03 61° ENE 17:31:05 61° ENE
Cosmos 2227 Rocket 4.1 17:28:03 10° NNW 17:32:00 19° N 17:33:42 17° NNE
Cosmos 1000 Rocket 4.4 17:29:57 25° S 17:33:46 88° E 17:40:05 10° NNE
Cosmos 2082 Rocket 3.3 17:28:34 10° NW 17:33:51 39° WSW 17:36:26 25° SSW
Cosmos 2297 Rocket 4.0 17:33:54 10° NNW 17:37:54 19° NNE 17:39:15 18° NNE
SJ-6B 4.3 17:38:41 33° W 17:38:41 33° W 17:42:06 10° NNW
SPOT 3 Rocket 4.5 17:38:33 30° SSW 17:40:41 45° W 17:45:43 10° NNW
Cosmos 2298 Rocket 4.4 17:37:46 10° NNW 17:42:13 55° NNE 17:42:13 55° NNE
Lacrosse 5 3.2 17:40:22 10° WNW 17:44:44 31° SW 17:44:44 31° SW
Cosmos 1937 Rocket 3.6 17:41:13 10° NNW 17:46:01 69° W 17:46:01 69° W
Cosmos 2016 Rocket 4.3 17:45:25 10° NNW 17:51:34 63° W 17:53:32 43° SSW
MetOp-B 4.5 17:56:10 59° N 17:56:10 59° N 18:00:32 10° NNW
H-2A R/B 3.2 17:57:23 32° SW 17:59:00 40° W 18:04:06 10° NNW
Cosmos 1844 Rocket 4.5 17:57:05 10° W 18:01:57 28° NNW 18:06:48 10° NNE
Spot 2 Rocket 4.2 18:03:53 50° NNW 18:03:53 50° NNW 18:07:38 10° NNW
Cosmos 1238 Rocket 4.1 18:00:41 10° N 18:06:52 76° NNE 18:06:52 76° NNE
GEOS 3 Rocket 4.3 18:11:05 49° NNW 18:11:05 49° NNW 18:15:02 10° NW
ATLAS CENTAUR R/B 3.4 18:13:33 10° NW 18:16:01 29° NNW 18:16:01 29° NNW
Cosmos 2278 Rocket 3.0 18:14:25 10° WSW 18:19:55 48° NW 18:22:40 28° NNE
ERS-1 Rocket 4.4 18:22:39 31° N 18:22:39 31° N 18:25:19 10° NNW
CZ-2C R/B 4.2 18:20:56 41° WSW 18:21:35 43° W 18:27:06 10° NNW
Meteor 2-3 Rocket 4.3 18:16:21 10° NNW 18:20:42 53° NNW 18:20:42 53° NNW
ATLAS 5 CENTAUR R/B 3.4 18:26:49 10° WNW 18:30:17 34° NNW 18:30:17 34° NNW
ADEOS Rocket 4.1 18:27:13 10° NNE 18:34:49 57° WNW 18:42:05 10° SW
Resurs 01 Rocket 4.0 18:45:24 21° WNW 18:45:24 21° WNW 18:47:39 10° NW
SJ 16-02 4.0 18:45:53 10° NW 18:47:27 17° WNW 18:47:27 17° WNW
Cosmos 2263 Rocket 4.4 18:46:34 10° NW 18:50:16 17° N 18:51:41 16° NNE
Terra 4.1 18:55:36 20° N 18:55:36 20° N 18:57:04 10° NNW
Cosmos 2227 Rocket 4.0 19:12:34 10° NNW 19:15:30 26° N 19:15:30 26° N
Cosmos 2297 Rocket 4.1 19:18:18 10° NNW 19:21:02 25° N 19:21:02 25° N
Cosmos 2278 Rocket 4.4 20:01:07 10° WNW 20:08:52 13° NNE 20:09:42 10° NNE
SL-16 R/B 4.3 21:30:42 26° NNE 21:30:42 26° NNE 21:33:55 10° N
Cosmos 2344 4.2 22:25:22 57° N 22:25:22 57° N 22:35:01 10° ENE
ATLAS 3B R/B 3.8 22:38:35 37° NE 22:38:35 37° NE 22:43:15 10° ENE
Cosmos 2369 Rocket 4.4 22:48:03 18° N 22:48:03 18° N 22:51:41 10° NNE
CENTAUR R/B 3.6 22:50:02 50° N 22:50:13 50° N 22:58:09 10° E
Cosmos 2322 Rocket 4.3 22:56:26 20° ENE 22:56:26 20° ENE 22:58:54 10° NE
Cosmos 2360 Rocket 4.5 23:06:35 16° E 23:06:35 16° E 23:09:27 10° ENE
Cosmos 1980 Rocket 3.7 23:13:32 32° NE 23:13:32 32° NE 23:16:31 10° NE
SL-16 R/B 4.3 23:15:48 23° NNW 23:15:48 23° NNW 23:17:56 10° NNW
Resurs 1-4 Rocket 3.7 23:17:48 10° NNE 23:20:31 31° NNE 23:20:31 31° NNE
NOSS 3-2 (A) 4.1 23:26:07 66° NNE 23:26:07 66° NNE 23:34:03 10° ESE
Cosmos 1943 Rocket 4.5 23:29:22 15° NNW 23:31:12 17° N 23:34:54 10° NE
Cosmos 2278 Rocket 3.8 23:32:49 11° NNW 23:37:34 31° NE 23:42:37 10° E
USA 267 4.4 23:34:51 10° ENE 23:40:00 30° SE 23:40:00 30° SE
NOSS 3-2 (C) 4.1 23:46:52 52° NNW 23:48:31 65° NNE 23:56:30 10° ESE
CZ-2D R/B 3.4 23:49:06 10° NNE 23:51:59 34° N 23:51:59 34° N
